Weather History for KLGA - February, 2014

Change the Weather History Date:

Monday, February 17, 2014

  Actual Average Record
Temperature  
Mean Temperature 26 °F 36 °F  
Max Temperature 33 °F 43 °F 66 °F (1976)
Min Temperature 19 °F 29 °F 2 °F (1979)
Degree Days  
Heating Degree Days 39 29  
Month to date heating degree days 600 520  
Since 1 July heating degree days 3323 3119  
Cooling Degree Days 0 0  
Month to date cooling degree days 0 0  
Year to date cooling degree days 0 0  
Moisture  
Dew Point 3 °F    
Average Humidity 41    
Maximum Humidity 57    
Minimum Humidity 25    
Precipitation  
Precipitation 0.00 in 0.10 in 0.94 in (1952)
Month to date precipitation 4.39 1.62  
Year to date precipitation 6.75 4.79  
Snow  
Snow 0.00 in 0.30 in 13.10 in (2003)
Month to date snowfall 26.1 5.6  
Since 1 July snowfall 50.6 18.5  
Snow Depth 11.00 in    
Sea Level Pressure  
Sea Level Pressure 30.31 in    
Wind  
Wind Speed 9 mph (NW)    
Max Wind Speed 24 mph    
Max Gust Speed 32 mph    
Visibility 10 miles    
Events      
T = Trace of Precipitation, MM = Missing Value Source: NWS Daily Summary

Daily Weather History Graph

Daily Weather History Graph

Search for Another Location

Airport or City:

Trip Planner

Search our weather history database for the weather conditions in past years. The results will help you decide how hot, cold, wet, or windy it might be!

Date:

Astronomy

Feb. 17, 2014 Rise Set
Actual Time 6:46 AM EST 5:32 PM EST
Civil Twilight 6:18 AM EST 6:00 PM EST
Nautical Twilight 5:46 AM EST 6:32 PM EST
Astronomical Twilight 5:15 AM EST 7:04 PM EST
Moon 8:26 PM EST (2/17) 7:44 AM EST (2/17)
Length of Visible Light 11h 41m
Length of Day
10h 45m
Waning Gibbous, 93% of the Moon is Illuminated
Feb 17
Waning Gibbous
Feb 22
Last Quarter
Mar 1
New
Mar 8
First Quarter
Mar 16
Full

Hourly Weather History & Observations

Time (EST) Temp. Windchill Dew Point Humidity Pressure Visibility Wind Dir Wind Speed Gust Speed Precip Events Conditions
12:51 AM 21.9 °F 6.9 °F 7.0 °F 53% 30.13 in 10.0 mi NW 19.6 mph 28.8 mph N/A   Partly Cloudy
1:51 AM 21.0 °F 6.2 °F 8.1 °F 57% 30.17 in 10.0 mi NW 18.4 mph 26.5 mph N/A   Partly Cloudy
2:51 AM 19.9 °F 8.6 °F 6.1 °F 55% 30.19 in 10.0 mi NW 10.4 mph 25.3 mph N/A   Clear
3:51 AM 19.9 °F 7.3 °F 7.0 °F 57% 30.21 in 10.0 mi NW 12.7 mph - N/A   Clear
4:51 AM 19.9 °F 7.9 °F 7.0 °F 57% 30.25 in 10.0 mi NW 11.5 mph - N/A   Clear
5:51 AM 19.0 °F 6.1 °F 5.0 °F 54% 30.26 in 10.0 mi NW 12.7 mph 21.9 mph N/A   Clear
6:51 AM 19.0 °F 4.5 °F 3.9 °F 52% 30.29 in 10.0 mi WNW 16.1 mph 25.3 mph N/A   Clear
7:51 AM 19.0 °F 5.6 °F 1.9 °F 47% 30.30 in 10.0 mi NNW 13.8 mph 23.0 mph N/A   Clear
8:51 AM 21.0 °F 8.1 °F -0.0 °F 40% 30.33 in 10.0 mi NW 13.8 mph - N/A   Clear
9:51 AM 23.0 °F 9.6 °F -0.0 °F 37% 30.36 in 10.0 mi NW 16.1 mph - N/A   Clear
10:51 AM 25.0 °F 14.8 °F 1.0 °F 36% 30.38 in 10.0 mi WNW 10.4 mph - N/A   Clear
11:51 AM 27.0 °F 16.7 °F 1.0 °F 33% 30.38 in 10.0 mi NW 11.5 mph - N/A   Clear
12:51 PM 28.9 °F 20.4 °F 1.9 °F 32% 30.36 in 10.0 mi NW 9.2 mph - N/A   Clear
1:51 PM 30.0 °F 21.7 °F -2.0 °F 25% 30.36 in 10.0 mi North 9.2 mph - N/A   Clear
2:51 PM 32.0 °F 25.6 °F 1.0 °F 27% 30.35 in 10.0 mi NNW 6.9 mph - N/A   Partly Cloudy
3:51 PM 32.0 °F 27.5 °F -0.9 °F 24% 30.36 in 10.0 mi WNW 4.6 mph - N/A   Scattered Clouds
4:51 PM 32.0 °F - 1.9 °F 28% 30.36 in 10.0 mi Calm Calm - N/A   Scattered Clouds
5:51 PM 30.9 °F - -2.9 °F 23% 30.37 in 10.0 mi Calm Calm - N/A   Mostly Cloudy
6:51 PM 30.9 °F 27.5 °F -0.0 °F 27% 30.36 in 10.0 mi NE 3.5 mph - N/A   Mostly Cloudy
7:51 PM 30.0 °F 23.2 °F 3.0 °F 32% 30.36 in 10.0 mi SE 6.9 mph - N/A   Mostly Cloudy
8:51 PM 28.9 °F 23.9 °F 3.9 °F 35% 30.35 in 10.0 mi South 4.6 mph - N/A   Mostly Cloudy
9:51 PM 28.9 °F 25.2 °F 5.0 °F 36% 30.33 in 10.0 mi SE 3.5 mph - N/A   Mostly Cloudy
10:51 PM 30.0 °F 26.5 °F 3.9 °F 33% 30.33 in 10.0 mi SE 3.5 mph - N/A   Mostly Cloudy
11:51 PM 28.0 °F 21.7 °F 3.9 °F 36% 30.34 in 10.0 mi SE 5.8 mph - N/A   Overcast